TimeEST,TemperatureF,Dew PointF,Humidity,Sea Level PressureIn,VisibilityMPH,Wind Direction,Wind SpeedMPH,Gust SpeedMPH,PrecipitationIn,Events,Conditions,WindDirDegrees,DateUTC
12:15 AM,26.2,20.1,78,30.38,7.0,South,3.5,-,N/A,,Clear,170,2012-11-29 05:15:00
12:35 AM,26.2,20.3,78,30.38,7.0,South,3.5,-,N/A,,Clear,170,2012-11-29 05:35:00
12:55 AM,26.4,20.3,78,30.38,7.0,South,4.6,-,N/A,,Clear,170,2012-11-29 05:55:00
1:15 AM,26.1,20.3,79,30.37,7.0,SSE,3.5,-,N/A,,Clear,160,2012-11-29 06:15:00
1:35 AM,26.2,20.3,78,30.38,7.0,South,4.6,-,N/A,,Clear,170,2012-11-29 06:35:00
1:55 AM,25.2,19.6,79,30.37,7.0,SSE,5.8,-,N/A,,Clear,160,2012-11-29 06:55:00
2:15 AM,25.7,19.9,79,30.38,7.0,South,3.5,-,N/A,,Clear,180,2012-11-29 07:15:00
2:35 AM,26.8,20.5,77,30.38,10.0,SSW,4.6,-,N/A,,Clear,200,2012-11-29 07:35:00
2:55 AM,27.0,20.5,77,30.39,10.0,South,4.6,-,N/A,,Clear,190,2012-11-29 07:55:00
3:15 AM,26.4,19.9,77,30.39,10.0,SSW,3.5,-,N/A,,Clear,200,2012-11-29 08:15:00
3:35 AM,25.9,19.9,78,30.39,7.0,South,3.5,-,N/A,,Clear,180,2012-11-29 08:35:00
3:55 AM,26.8,20.7,78,30.38,7.0,South,4.6,-,N/A,,Clear,180,2012-11-29 08:55:00
4:15 AM,26.6,20.1,77,30.39,7.0,SSW,3.5,-,N/A,,Clear,200,2012-11-29 09:15:00
4:35 AM,26.1,19.9,78,30.38,7.0,South,4.6,-,N/A,,Clear,180,2012-11-29 09:35:00
4:55 AM,26.4,20.3,78,30.38,7.0,South,3.5,-,N/A,,Clear,190,2012-11-29 09:55:00
5:15 AM,25.9,19.9,78,30.39,10.0,SSW,3.5,-,N/A,,Clear,210,2012-11-29 10:15:00
5:35 AM,26.4,20.3,78,30.39,10.0,Calm,Calm,-,N/A,,Clear,0,2012-11-29 10:35:00
5:55 AM,25.9,20.3,79,30.38,7.0,South,3.5,-,N/A,,Clear,180,2012-11-29 10:55:00
6:15 AM,25.7,20.5,81,30.39,7.0,Calm,Calm,-,N/A,,Clear,0,2012-11-29 11:15:00
6:35 AM,25.3,20.3,81,30.38,7.0,South,3.5,-,N/A,,Clear,170,2012-11-29 11:35:00
6:55 AM,25.0,19.9,81,30.40,7.0,Calm,Calm,-,N/A,,Clear,0,2012-11-29 11:55:00
7:15 AM,24.6,19.8,82,30.40,5.0,Calm,Calm,-,N/A,,Clear,0,2012-11-29 12:15:00
7:35 AM,24.1,19.6,83,30.40,7.0,Calm,Calm,-,N/A,,Clear,0,2012-11-29 12:35:00
7:55 AM,24.1,19.6,83,30.39,7.0,South,3.5,-,N/A,,Clear,190,2012-11-29 12:55:00
8:15 AM,24.6,19.9,82,30.39,7.0,SSW,3.5,-,N/A,,Clear,200,2012-11-29 13:15:00
8:35 AM,27.1,22.1,81,30.39,7.0,SSE,3.5,-,N/A,,Clear,150,2012-11-29 13:35:00
8:55 AM,28.6,23.2,80,30.39,7.0,Calm,Calm,-,N/A,,Clear,0,2012-11-29 13:55:00
9:15 AM,29.8,24.3,80,30.40,7.0,Calm,Calm,-,N/A,,Clear,0,2012-11-29 14:15:00
9:35 AM,31.5,24.8,76,30.40,10.0,South,4.6,-,N/A,,Clear,190,2012-11-29 14:35:00
9:55 AM,33.8,25.7,72,30.40,10.0,South,4.6,-,N/A,,Clear,180,2012-11-29 14:55:00
10:15 AM,36.1,26.6,68,30.40,10.0,South,6.9,-,N/A,,Clear,170,2012-11-29 15:15:00
10:35 AM,38.1,26.4,63,30.39,10.0,South,5.8,-,N/A,,Clear,190,2012-11-29 15:35:00
11:15 AM,41.4,25.3,53,30.38,10.0,SSW,9.2,-,N/A,,Clear,210,2012-11-29 16:15:00
11:35 AM,42.8,25.0,49,30.38,10.0,SSW,10.4,-,N/A,,Clear,210,2012-11-29 16:35:00
11:55 AM,43.5,25.5,49,30.36,10.0,SSW,11.5,-,N/A,,Clear,210,2012-11-29 16:55:00
12:15 PM,44.6,25.3,47,30.35,10.0,SSW,12.7,18.4,N/A,,Clear,210,2012-11-29 17:15:00
12:35 PM,45.7,24.6,44,30.34,10.0,SSW,10.4,16.1,N/A,,Clear,210,2012-11-29 17:35:00
12:55 PM,46.4,24.1,42,30.33,10.0,SW,6.9,-,N/A,,Clear,220,2012-11-29 17:55:00
1:15 PM,47.5,22.8,38,30.32,10.0,South,11.5,16.1,N/A,,Clear,170,2012-11-29 18:15:00
1:35 PM,47.8,21.9,36,30.31,10.0,South,15.0,-,N/A,,Clear,170,2012-11-29 18:35:00
1:55 PM,48.2,21.9,36,30.30,10.0,South,12.7,-,N/A,,Clear,170,2012-11-29 18:55:00
2:15 PM,48.2,21.7,35,30.29,10.0,South,11.5,-,N/A,,Clear,190,2012-11-29 19:15:00
2:35 PM,48.2,20.8,34,30.28,10.0,South,10.4,-,N/A,,Clear,190,2012-11-29 19:35:00
2:55 PM,48.6,19.9,32,30.27,10.0,South,11.5,-,N/A,,Clear,190,2012-11-29 19:55:00
3:15 PM,48.9,19.8,32,30.27,10.0,SSW,9.2,-,N/A,,Clear,200,2012-11-29 20:15:00
3:35 PM,48.6,19.0,31,30.26,10.0,South,10.4,-,N/A,,Clear,180,2012-11-29 20:35:00
3:55 PM,48.6,19.0,31,30.26,10.0,South,10.4,-,N/A,,Clear,180,2012-11-29 20:55:00
4:15 PM,47.8,19.4,32,30.26,10.0,South,6.9,-,N/A,,Clear,170,2012-11-29 21:15:00
4:35 PM,46.4,20.3,36,30.26,10.0,South,5.8,-,N/A,,Clear,170,2012-11-29 21:35:00
4:55 PM,44.1,20.5,39,30.26,10.0,South,6.9,-,N/A,,Clear,170,2012-11-29 21:55:00
5:15 PM,42.1,20.8,43,30.25,10.0,South,6.9,-,N/A,,Clear,170,2012-11-29 22:15:00
5:35 PM,40.8,21.0,45,30.26,10.0,South,5.8,-,N/A,,Clear,180,2012-11-29 22:35:00
5:55 PM,40.5,21.2,46,30.26,10.0,South,5.8,-,N/A,,Clear,180,2012-11-29 22:55:00
6:15 PM,39.6,20.8,47,30.26,10.0,South,5.8,-,N/A,,Clear,180,2012-11-29 23:15:00
6:35 PM,38.7,20.7,48,30.27,10.0,South,4.6,-,N/A,,Clear,180,2012-11-29 23:35:00
6:55 PM,38.1,21.2,51,30.27,10.0,South,5.8,-,N/A,,Clear,190,2012-11-29 23:55:00
7:15 PM,39.0,21.7,50,30.27,10.0,SSW,5.8,-,N/A,,Clear,200,2012-11-30 00:15:00
7:35 PM,37.9,22.1,53,30.26,10.0,South,5.8,-,N/A,,Clear,190,2012-11-30 00:35:00
7:55 PM,36.3,21.4,55,30.26,10.0,South,4.6,-,N/A,,Clear,180,2012-11-30 00:55:00
8:15 PM,36.1,21.6,56,30.26,10.0,SSE,3.5,-,N/A,,Clear,160,2012-11-30 01:15:00
8:35 PM,36.1,21.6,56,30.26,10.0,SSE,3.5,-,N/A,,Clear,150,2012-11-30 01:35:00
8:55 PM,36.3,21.6,55,30.25,10.0,SSE,3.5,-,N/A,,Clear,150,2012-11-30 01:55:00
9:15 PM,36.5,21.6,55,30.26,10.0,Calm,Calm,-,N/A,,Clear,0,2012-11-30 02:15:00
9:35 PM,36.5,21.6,55,30.26,10.0,Calm,Calm,-,N/A,,Clear,0,2012-11-30 02:35:00
9:55 PM,36.3,21.6,55,30.26,10.0,Calm,Calm,-,N/A,,Mostly Cloudy,0,2012-11-30 02:55:00
10:15 PM,35.2,21.7,58,30.26,10.0,Calm,Calm,-,N/A,,Overcast,0,2012-11-30 03:15:00
10:35 PM,33.6,21.9,62,30.26,10.0,Calm,Calm,-,N/A,,Overcast,0,2012-11-30 03:35:00
10:55 PM,34.2,22.1,61,30.26,10.0,Calm,Calm,-,N/A,,Scattered Clouds,0,2012-11-30 03:55:00
11:15 PM,34.7,22.1,60,30.26,10.0,Calm,Calm,-,N/A,,Mostly Cloudy,0,2012-11-30 04:15:00
11:35 PM,33.6,22.6,64,30.26,10.0,Calm,Calm,-,N/A,,Overcast,0,2012-11-30 04:35:00
11:55 PM,34.3,24.6,68,30.26,10.0,Calm,Calm,-,N/A,,Overcast,0,2012-11-30 04:55:00